Location: Newark
(25.0000°N, 73.5000°E)
Time: 12:23:08
(UTC+00:00)

Vanguard 3 - Visible Passes

Search period start: 07 March 2021 00:00
Search period end: 17 March 2021 00:00
Orbit: 508 x 3262 km, 33.4° (Epoch: 06 March)

Date Brightness Start Highest point End Pass type
(mag) Time Alt. Az. Time Alt. Az. Time Alt. Az.
07 Mar 8.4 14:50:01 10° WNW 15:03:59 80° SSW 15:07:08 46° SE visible
07 Mar 10.3 17:09:16 10° W 17:11:42 15° WSW 17:11:42 15° WSW visible
08 Mar 9.1 13:31:47 10° WNW 13:48:32 78° NNE 13:57:28 12° ESE visible
08 Mar 8.9 15:50:32 10° WNW 16:01:40 43° SW 16:02:03 42° SW visible
09 Mar 8.9 14:32:19 10° WNW 14:47:15 72° SSW 14:52:25 29° SE visible
09 Mar 10.2 16:52:38 10° W 16:57:00 16° WSW 16:57:00 16° WSW visible
10 Mar 9.3 13:14:00 10° WNW 13:31:42 84° NNE 13:41:48 10° ESE visible
10 Mar 9.2 15:33:08 10° WNW 15:44:49 38° SW 15:47:24 32° S visible
11 Mar 9.2 14:14:35 10° WNW 14:30:21 65° SW 14:37:50 17° SE visible
11 Mar 10.2 16:36:07 10° W 16:41:35 15° SW 16:42:26 15° SW visible
12 Mar 9.7 15:15:44 10° WNW 15:27:52 35° SW 15:32:54 21° S visible
13 Mar 9.6 13:56:51 10° WNW 14:13:18 59° SW 14:22:54 10° SE visible
13 Mar 10.4 16:19:47 10° W 16:24:38 13° SW 16:27:59 11° SSW visible
14 Mar 10.1 14:58:21 10° WNW 15:10:46 31° SW 15:18:30 11° S visible
15 Mar 10.0 13:39:08 10° WNW 13:56:06 54° SW 14:06:27 10° SE visible
15 Mar 10.6 16:03:54 10° WSW 16:07:37 12° SW 16:10:51 10° SW visible
16 Mar 10.4 14:41:01 10° W 14:53:33 28° SW 15:02:03 10° S visible
